Powrót do katalogu

STARLINK-36804

AktywnyŁącznośćSSO
NORAD 67799·PAYLOAD·🇺🇸 United States

Wystrzelony Feb 15, 2026 z Vandenberg Space Force Base

Loading…

Następne Przeloty (najbliższe 24 godziny)

TLE

ŚwieżeSource: CelesTrak SupGP

Epoka: Sep 15, 2026, 03:15 UTC

1 67799C 26032C   26258.13590278 -.00057891  00000+0 -17968-2 0  2581
2 67799  97.2855  84.5429 0001748  92.5967  75.6746 15.33472174    19

Śledź STARLINK-36804 w czasie rzeczywistym z AllMySat

Download on the App Store